Theta_e
320 320 320 321 323 324 322 322 320 317 322 327 328 329 329 329 332 335 336 334 330 328 327 324 321 326 334 335 338 338 337 336 335 331 323 327 329 331 329 326 324 324 329
316 317 318 318 319 319 319 320 319 318 318 318 320 323 328 330 331 331 334 332 331 329 326 324 324 330 326 329 334 333 335 334 330 325 326 326 325 325 323 320 322 322 322
316 316 316 317 317 317 317 317 318 317 317 318 318 318 317 323 327 329 331 330 329 324 323 320 321 322 330 328 328 330 332 326 326 325 324 323 322 320 315 319 320 326 327
316 315 315 315 315 314 315 316 315 316 317 316 317 316 317 321 323 325 328 327 324 322 328 324 324 326 325 321 329 329 327 324 324 324 322 320 314 314 315 316 316 318 319
314 314 315 315 314 314 314 314 314 314 315 315 314 316 316 321 322 321 322 324 327 327 327 326 326 327 326 326 327 324 323 322 321 316 310 310 310 310 310 310 309 309 309
314 314 314 313 313 313 312 313 312 313 313 314 315 314 314 316 319 322 322 323 324 322 320 322 324 326 325 323 321 319 315 311 311 311 311 311 311 312 311 309 308 310 312
313 313 312 312 312 312 312 312 312 312 313 313 313 314 313 314 315 317 318 317 319 322 325 324 323 323 322 321 318 316 313 312 313 315 315 314 314 314 312 311 310 311 312
311 311 310 310 309 309 308 307 310 311 312 313 313 313 314 312 315 316 317 317 318 321 322 324 322 322 321 320 319 318 317 316 317 317 317 315 316 315 314 313 312 312 311
310 309 309 309 309 308 308 307 307 308 308 309 313 314 314 314 312 315 315 316 317 318 321 320 321 322 321 321 322 322 322 320 320 319 319 318 316 315 315 314 312 312 312
309 309 308 308 308 307 306 306 305 304 304 306 309 311 313 315 315 312 314 316 316 316 316 320 321 321 322 323 321 322 323 319 320 320 321 320 319 316 315 313 313 313 314
307 308 308 307 307 306 306 305 305 304 302 304 306 309 310 311 314 315 314 315 315 315 315 316 320 319 316 322 323 322 320 320 320 321 322 322 321 320 317 315 315 314 314
303 303 303 304 304 305 305 305 304 303 302 304 306 307 308 308 310 312 314 316 315 316 317 316 316 318 317 316 322 323 323 323 324 323 323 322 322 321 318 316 316 315 314
299 299 300 300 301 302 304 303 303 303 303 303 303 304 306 307 308 308 309 311 312 315 315 316 317 317 318 320 321 321 322 322 323 323 323 321 321 321 317 317 316 315 315
298 298 298 299 300 301 302 302 302 302 302 302 302 303 304 305 306 307 308 310 311 312 312 314 318 318 319 319 320 319 321 322 323 323 322 321 322 320 318 317 316 315 317
297 297 298 298 299 299 300 301 300 300 301 301 302 302 302 303 304 306 307 308 310 312 311 313 313 317 320 320 319 320 321 321 322 322 322 322 322 319 318 316 315 315 317
294 296 297 299 299 299 299 299 299 300 301 301 301 301 302 303 303 305 307 308 308 310 310 314 315 314 315 319 319 317 317 318 320 321 322 322 321 318 317 316 315 316 319
293 294 295 296 297 298 298 298 298 299 299 300 300 301 301 301 302 304 304 305 307 307 307 308 312 315 315 314 315 315 315 314 316 317 321 322 320 317 317 317 316 316 318
294 294 294 295 295 295 296 296 297 297 297 297 298 299 299 301 301 303 303 303 304 305 305 306 308 314 316 317 317 317 318 318 318 317 318 318 318 318 317 317 316 316 320
297 298 297 296 295 295 295 295 295 295 295 296 296 297 298 298 299 300 301 302 302 302 303 305 307 309 317 317 317 317 317 319 320 319 319 319 318 318 317 316 315 317 320
302 302 302 302 301 300 299 297 296 297 296 296 296 296 297 297 297 297 298 299 301 302 302 305 307 308 315 317 316 316 318 318 318 318 319 318 318 317 317 317 319 319 318
306 306 305 305 304 304 304 303 302 301 300 299 300 298 298 297 297 297 298 298 300 300 301 303 306 308 311 315 314 316 315 316 316 316 315 315 315 315 314 314 316 317 317
306 306 306 305 305 305 306 307 306 307 306 305 304 301 300 298 297 298 298 298 299 300 301 302 305 307 309 311 314 314 313 313 313 314 314 314 314 316 317 317 320 319 323
304 304 304 304 304 305 306 307 307 307 307 306 306 304 302 300 299 298 299 299 300 301 301 303 305 307 309 309 311 312 312 312 311 312 314 316 316 316 317 322 322 322 325
306 306 306 304 301 304 306 308 308 308 307 306 305 305 304 303 301 300 301 301 301 302 303 304 305 305 307 308 310 310 310 310 310 311 311 310 316 320 321 321 322 326 324
307 306 305 303 303 303 304 308 308 308 308 306 305 305 305 304 302 302 302 302 301 302 303 305 305 306 306 308 310 310 310 310 310 312 312 314 318 321 322 323 325 323 322
307 305 305 303 303 303 302 305 307 308 308 308 307 306 305 305 305 305 304 303 304 304 305 305 306 306 306 307 307 308 308 308 312 314 316 320 320 321 323 324 325 323 324
Wind_Speed
10 9 10 15 15 18 25 29 32 31 29 32 37 40 42 38 32 35 34 36 42 48 47 32 38 28 30 29 28 23 22 24 21 20 17 12 8 11 16 20 19 17 18
13 16 17 14 14 18 23 29 31 34 30 30 32 37 33 34 30 32 33 30 35 37 46 35 2 29 29 28 21 22 21 21 16 8 8 10 12 13 16 15 13 12 18
11 13 17 19 21 21 24 28 29 32 34 31 30 32 35 37 35 27 33 33 32 29 32 25 34 31 25 20 19 21 22 16 11 10 10 11 15 16 12 13 14 12 11
22 22 25 26 28 31 32 31 34 34 34 34 35 34 34 32 29 29 21 32 38 36 27 28 31 28 29 33 29 26 23 20 14 14 16 16 16 13 14 20 19 19 22
25 24 20 20 23 27 31 32 33 34 35 34 36 38 36 29 28 22 18 16 22 19 20 22 27 30 30 29 25 23 22 21 19 14 9 9 11 9 12 14 18 20 21
21 23 27 28 29 31 33 35 35 35 37 34 36 35 38 32 26 22 18 16 21 24 22 22 25 24 23 22 22 18 16 13 10 7 5 8 5 5 9 14 19 21 25
26 29 31 31 28 28 29 29 32 34 36 37 34 35 36 36 32 26 21 8 26 15 20 22 23 23 20 23 19 16 14 13 12 8 4 7 9 8 13 18 22 24 27
35 37 39 39 39 40 38 45 44 37 35 35 38 34 35 33 30 22 21 20 31 22 21 21 25 23 24 22 22 21 18 16 12 10 10 9 11 12 15 20 24 28 28
36 36 34 35 34 37 39 43 50 48 45 36 28 32 31 31 29 31 26 20 22 22 19 24 25 26 23 22 19 18 17 16 14 14 14 13 14 15 17 22 24 26 30
32 32 32 32 34 35 39 45 47 48 47 45 40 26 27 25 26 22 24 31 32 32 19 23 28 28 25 24 25 23 22 23 19 18 18 19 21 18 19 22 25 26 28
32 30 31 31 36 39 42 45 43 44 45 43 43 41 27 29 24 23 23 22 26 30 26 21 23 35 37 34 29 31 30 27 24 23 24 26 26 24 25 23 27 25 27
44 45 46 43 41 41 45 42 39 40 42 40 30 41 43 33 34 32 25 21 20 25 23 25 28 22 27 41 32 32 29 31 29 28 29 29 29 28 26 25 29 28 29
39 37 36 38 40 37 32 35 39 37 37 36 33 34 36 37 33 34 38 32 32 22 25 25 29 29 28 28 29 34 33 34 31 32 32 30 29 27 27 29 31 29 25
37 36 37 33 34 29 30 32 33 35 34 35 34 32 29 29 31 34 29 26 29 25 31 31 28 30 29 29 26 27 30 31 31 32 33 31 29 29 28 29 30 25 23
36 35 34 33 32 32 32 31 34 37 36 35 34 34 33 34 31 28 29 32 26 28 29 29 31 31 31 31 29 30 23 23 29 31 32 32 31 29 29 27 24 25 23
35 32 30 30 31 35 34 33 31 34 35 36 35 34 33 29 28 26 25 28 32 24 17 22 28 30 39 36 35 34 32 30 26 28 30 32 31 30 27 25 23 25 24
33 35 37 36 34 28 29 31 35 33 31 32 36 37 37 35 34 28 36 36 28 25 18 15 18 24 27 29 32 32 32 33 30 28 29 31 30 26 24 23 24 25 24
31 32 33 34 36 38 39 38 36 36 38 39 38 39 38 38 41 40 39 37 42 39 33 22 19 19 22 24 24 23 23 24 23 22 24 26 21 24 25 23 24 26 24
27 27 27 28 28 29 28 32 35 35 34 35 33 34 32 33 36 42 45 46 42 41 39 36 23 21 21 23 24 21 20 22 22 23 22 22 23 21 23 26 27 25 23
23 20 19 20 21 22 23 25 26 28 29 30 31 32 28 24 26 32 37 44 50 49 44 45 35 23 23 18 21 23 16 22 22 24 26 25 25 25 23 23 22 25 25
20 18 16 17 19 20 20 21 21 22 23 23 23 22 19 22 25 25 26 36 46 41 43 44 43 29 24 22 8 17 22 25 19 18 17 19 22 23 25 28 28 30 27
19 17 17 18 18 17 17 17 18 16 17 19 17 12 12 14 19 19 22 25 31 38 35 41 45 36 18 21 25 21 14 16 16 14 16 19 23 23 23 23 21 20 16
17 17 16 15 14 13 10 9 11 13 13 11 9 6 8 12 15 20 18 19 21 25 32 37 38 38 25 14 22 22 21 20 18 18 19 19 22 23 22 20 20 18 22
17 17 16 16 17 14 13 14 15 16 15 17 10 5 5 8 11 17 15 14 17 23 28 32 33 36 37 25 27 29 28 25 29 32 33 30 22 20 20 22 20 19 17
20 21 22 21 22 19 16 13 15 17 16 17 17 14 7 7 9 9 9 10 15 23 22 24 26 28 37 37 31 31 27 25 23 20 22 23 20 20 20 19 17 17 18
26 27 27 26 25 24 20 17 16 15 16 16 13 13 9 6 3 2 5 10 15 19 21 22 27 29 30 33 35 34 34 34 24 21 19 19 19 20 18 18 21 18 18
Wind_Direction
273 291 297 290 294 278 283 292 298 299 301 300 296 291 291 289 294 285 273 261 244 247 254 255 291 268 237 225 218 227 231 246 247 261 273 268 261 274 282 290 294 290 290
297 290 295 296 303 304 291 288 299 300 296 301 304 302 295 292 293 288 281 268 252 245 240 253 193 240 226 231 221 227 232 236 250 246 238 248 252 266 287 299 300 296 288
292 289 284 281 279 292 301 298 299 300 297 299 300 308 308 291 288 293 279 271 246 238 237 229 191 187 223 231 250 233 236 234 204 194 218 253 277 287 274 281 306 311 297
270 278 285 282 283 288 288 289 287 295 298 300 291 297 305 301 289 277 283 256 246 237 212 199 202 204 205 229 212 217 225 238 226 240 256 276 280 285 296 291 289 285 288
277 283 285 292 290 285 284 287 285 289 293 298 303 289 290 291 289 275 280 268 250 202 207 209 208 209 213 216 212 217 224 237 240 238 252 270 275 294 291 316 319 307 300
274 273 279 285 287 290 293 292 289 289 289 293 292 299 288 280 294 269 282 249 261 235 221 213 213 207 210 218 215 224 213 195 206 207 236 265 286 304 343 348 339 324 319
268 275 277 278 279 279 284 285 284 288 287 284 288 291 295 288 283 287 268 275 284 233 222 212 208 212 219 209 210 204 203 215 225 236 254 281 304 356 351 345 334 324 316
287 283 281 279 281 277 279 282 278 277 285 287 286 284 287 294 277 277 274 264 258 247 228 209 205 201 208 210 211 212 217 223 235 256 267 291 320 347 339 333 330 325 320
285 277 272 273 271 274 274 282 282 284 281 284 289 285 278 282 288 272 266 264 260 272 237 221 212 208 223 226 227 231 236 246 252 263 274 294 306 327 327 320 322 325 326
283 281 275 269 268 271 275 278 275 287 284 282 274 285 285 283 287 287 271 251 261 267 258 247 223 219 214 223 237 233 238 251 256 269 272 287 296 304 312 311 323 321 323
281 277 275 273 269 273 275 277 274 275 284 278 270 265 271 267 277 284 279 266 259 260 255 253 246 246 263 237 243 245 247 261 261 268 271 279 289 295 301 310 323 318 315
292 288 284 282 280 278 276 270 266 274 278 271 270 261 265 267 262 266 272 277 276 267 267 257 250 241 242 248 242 244 251 257 261 263 266 276 286 293 298 307 318 319 310
295 291 287 284 284 272 266 269 271 269 265 269 268 263 261 263 262 263 267 270 267 270 260 252 248 247 250 247 253 248 254 257 260 260 263 273 283 290 294 308 317 316 307
292 290 292 287 284 276 271 273 263 262 259 263 261 260 263 262 261 260 259 267 274 272 260 251 245 244 245 247 248 246 250 253 255 260 266 271 275 280 291 308 313 321 316
291 289 288 284 282 281 273 265 268 266 259 259 259 261 260 257 257 254 253 254 263 254 256 250 248 244 242 243 244 245 252 255 252 255 258 262 265 274 287 307 310 319 308
288 288 287 285 274 272 276 280 273 267 264 262 262 258 255 254 255 248 239 237 245 254 241 242 238 242 239 239 245 251 254 254 256 256 255 256 260 271 291 299 305 306 306
284 280 278 278 276 276 270 271 278 280 275 265 258 254 251 250 243 237 237 241 237 244 252 247 239 230 239 243 248 252 253 255 258 261 258 252 258 276 286 288 294 300 301
296 292 289 287 284 282 278 279 279 274 274 270 262 259 253 248 244 238 242 241 244 246 252 250 244 235 230 240 243 243 245 247 247 249 251 252 253 272 274 274 285 295 296
309 305 303 298 293 289 284 280 280 278 274 273 272 269 260 251 246 243 239 238 241 246 246 242 238 233 220 231 235 240 240 239 241 242 234 245 261 256 266 274 282 285 289
330 327 323 315 310 305 299 291 287 283 278 273 269 267 266 257 242 234 232 229 232 234 237 236 229 229 212 216 229 231 238 237 240 237 241 244 254 256 259 268 270 278 295
343 342 336 327 327 326 322 314 308 300 294 288 282 275 266 252 240 235 231 230 225 226 230 231 229 222 215 207 207 225 229 237 230 230 234 241 247 256 265 272 273 275 288
354 349 345 346 350 351 346 348 353 334 315 305 300 277 257 234 225 227 226 226 229 223 221 227 228 217 212 223 217 223 215 207 221 231 244 260 265 267 270 273 275 271 259
5 7 3 357 351 350 358 6 1 5 8 347 321 264 225 217 213 204 213 219 213 209 218 224 219 210 208 221 223 221 229 238 242 239 239 243 265 264 267 274 271 259 242
22 23 24 22 24 25 27 29 26 26 32 33 56 105 161 192 195 187 208 211 208 196 202 213 219 217 216 220 217 223 232 248 254 256 248 260 261 267 268 271 259 248 230
37 36 35 30 31 34 42 49 42 38 46 53 55 59 80 134 152 177 192 201 191 181 196 191 193 200 212 217 214 222 228 238 256 256 244 243 260 267 267 259 245 215 205
45 46 46 40 40 43 44 53 52 52 54 57 61 66 66 71 91 138 170 169 171 182 188 193 196 205 217 224 226 233 241 237 232 232 242 254 262 261 248 244 212 204 216